Flag for China Weather past 2 weeks in Zhengzhou, Henan, China

Now
95 °F

Sunny.


Feels Like: 94 °F
Forecast: 74 / 93 °F
Wind: 1 mph from North

Location: Zhengzhou Airport

Current Time: Jul 1, 2015 at 1:54:01 PM

Latest Report: Jul 1, 2015 at 1:00 PM


Visibility: 10 mi

Pressure: 29.50 "Hg

Humidity: 28%

Dew point: 57 °F

Location of ZhengzhouLocation

Historic Weather in Zhengzhou — Graph

°F

Zhengzhou temperature yesterday

Maximum temperature yesterday: 82 °F (at 3:00 PM)
Minimum temperature yesterday: 66 °F (at 5:00 AM)
Average temperature yesterday: 74 °F

Past Weeks' High & Low Weather Summary

 TemperatureHumidityPressure
High95 °F (Jun 19, 1:00 PM)100% (Jun 17, 6:00 AM)29.92 "Hg (Jun 17, 6:00 AM)
Low64 °F (Jun 24, 5:00 AM)28% (Jun 19, 3:00 PM)29.53 "Hg (Jun 25, 5:00 PM)
Average76 °F74%29.68 "Hg
* Reported Jun 16 12:00 Noon — Jul 1 12:00 Noon, Zhengzhou, Weather by CustomWeather, © 2015

Note: Actual official high and low records may vary slightly from our data, if they occured in-between our weather recording intervals... More about our weather records

Advertising

Zhengzhou weather history for previous 24 hours

 ConditionsComfort  
Time TempWeatherWind HumidityBarometerVisibility
12:00 PM
Wed, Jul 1
91 °FSunny.3 mph34%29.53 "Hg10 mi
11:00 AM90 °FPassing clouds.3 mph41%29.53 "HgN/A
10:00 AM88 °FClear.6 mph52%29.56 "Hg5 mi
9:00 AM84 °FClear.6 mph58%29.56 "Hg4 mi
8:00 AM79 °FHaze.1 mph74%29.53 "Hg2 mi
7:00 AM73 °FFog.1 mph83%29.53 "Hg1 mi
6:00 AM70 °FFog.1 mph94%29.53 "Hg1 mi
5:00 AM70 °FFog.No wind88%29.53 "Hg1 mi
4:00 AM70 °FFog.1 mph88%29.53 "Hg1 mi
3:00 AM72 °FFog.1 mph88%29.53 "Hg1 mi
2:00 AM72 °FFog.1 mph88%29.56 "Hg1 mi
1:00 AM73 °FFog.3 mph83%29.59 "Hg1 mi
12:00 AM73 °FFog.3 mph83%29.59 "Hg2 mi
11:00 PM
Tue, Jun 30
73 °FFog.1 mph83%29.62 "Hg2 mi
10:00 PM75 °FFog.3 mph78%29.62 "Hg2 mi
9:00 PM75 °FFog.1 mph78%29.62 "Hg2 mi
8:00 PM77 °FFog.1 mph74%29.59 "Hg2 mi
7:00 PM79 °FHaze.1 mph70%29.59 "Hg3 mi
6:00 PM79 °FScattered clouds.3 mph70%29.59 "Hg3 mi
5:00 PM82 °FScattered clouds.1 mph55%29.59 "Hg3 mi
4:00 PM81 °FPartly sunny.3 mph62%29.59 "Hg3 mi
3:00 PM82 °FPartly sunny.3 mph58%29.62 "Hg3 mi
2:00 PM81 °FPartly sunny.3 mph62%29.62 "Hg3 mi
1:00 PM79 °FPartly sunny.6 mph65%29.65 "Hg3 mi
Weather by CustomWeather, © 2015

See weather overviewHow to use our weather pages